TimeWET,TemperatureF,Dew PointF,Humidity,Sea Level PressureIn,VisibilityMPH,Wind Direction,Wind SpeedMPH,Gust SpeedMPH,PrecipitationIn,Events,Conditions,WindDirDegrees,DateUTC
12:00 AM,44,40,79,30.24,6,Calm,Calm,,,,,,2012-12-06 00:00:00
12:00 AM,42.8,39.2,87,30.18,-9999.0,Calm,Calm,-,N/A,,Clear,0,2012-12-06 00:00:00
12:30 AM,42.8,41.0,93,30.18,-9999.0,Calm,Calm,-,N/A,,Clear,0,2012-12-06 00:30:00
1:00 AM,46.4,41.0,81,30.18,-9999.0,SSE,4.6,-,N/A,,Clear,160,2012-12-06 01:00:00
1:30 AM,46.4,41.0,81,30.18,-9999.0,SSE,5.8,-,N/A,,Clear,160,2012-12-06 01:30:00
2:00 AM,42.8,39.2,87,30.18,-9999.0,Calm,Calm,-,N/A,,Clear,0,2012-12-06 02:00:00
2:30 AM,41.0,39.2,93,30.18,-9999.0,Calm,Calm,-,N/A,,Clear,0,2012-12-06 02:30:00
3:00 AM,40,38,91,30.22,6,Calm,Calm,,,,,,2012-12-06 03:00:00
3:00 AM,41.0,39.2,93,30.15,-9999.0,Calm,Calm,-,N/A,,Clear,0,2012-12-06 03:00:00
3:30 AM,39.2,39.2,100,30.15,-9999.0,Calm,Calm,-,N/A,,Clear,0,2012-12-06 03:30:00
4:00 AM,41.0,39.2,93,30.15,-9999.0,Calm,Calm,-,N/A,,Clear,0,2012-12-06 04:00:00
4:30 AM,41.0,37.4,87,30.15,-9999.0,Calm,Calm,-,N/A,,Clear,0,2012-12-06 04:30:00
5:00 AM,39.2,37.4,93,30.15,-9999.0,Calm,Calm,-,N/A,,Clear,0,2012-12-06 05:00:00
5:30 AM,39.2,37.4,93,30.15,-9999.0,Calm,Calm,-,N/A,,Clear,0,2012-12-06 05:30:00
6:00 AM,39.2,37.4,93,30.15,-9999.0,East,3.5,-,N/A,,Clear,80,2012-12-06 06:00:00
6:30 AM,39.2,37.4,93,30.18,-9999.0,East,3.5,-,N/A,,Clear,80,2012-12-06 06:30:00
7:00 AM,39.2,37.4,93,30.18,-9999.0,East,3.5,-,N/A,,Clear,100,2012-12-06 07:00:00
7:30 AM,41.0,37.4,87,30.21,-9999.0,SE,3.5,-,N/A,,Clear,130,2012-12-06 07:30:00
8:00 AM,41.0,37.4,87,30.21,-9999.0,Calm,Calm,-,N/A,,Clear,0,2012-12-06 08:00:00
8:30 AM,46.4,41.0,81,30.21,-9999.0,Variable,2.3,-,N/A,,Clear,0,2012-12-06 08:30:00
9:00 AM,49,44,76,30.24,5,Calm,Calm,,,,Clear,,2012-12-06 09:00:00
9:00 AM,48.2,42.8,82,30.21,5.0,Variable,1.2,-,N/A,,Unknown,0,2012-12-06 09:00:00
9:30 AM,51.8,44.6,76,30.21,5.0,Variable,1.2,-,N/A,,Unknown,0,2012-12-06 09:30:00
10:00 AM,53.6,42.8,67,30.21,-9999.0,Variable,2.3,-,N/A,,Clear,0,2012-12-06 10:00:00
10:30 AM,57.2,42.8,59,30.21,4.3,Variable,1.2,-,N/A,,Unknown,0,2012-12-06 10:30:00
11:00 AM,59.0,42.8,55,30.21,3.1,Calm,Calm,-,N/A,,Unknown,0,2012-12-06 11:00:00
11:30 AM,59.0,41.0,51,30.18,4.3,Calm,Calm,-,N/A,,Unknown,0,2012-12-06 11:30:00
12:00 PM,61,41,36,30.18,6,NW,2.3,,,,Clear,320,2012-12-06 12:00:00
12:00 PM,60.8,42.8,52,30.18,5.6,Variable,2.3,-,N/A,,Unknown,0,2012-12-06 12:00:00
12:30 PM,62.6,42.8,48,30.18,-9999.0,Variable,2.3,-,N/A,,Clear,0,2012-12-06 12:30:00
1:00 PM,62.6,41.0,45,30.18,-9999.0,Variable,2.3,-,N/A,,Clear,0,2012-12-06 13:00:00
1:30 PM,64.4,41.0,42,30.15,-9999.0,WNW,3.5,-,N/A,,Clear,290,2012-12-06 13:30:00
2:00 PM,64.4,41.0,42,30.15,-9999.0,NNW,4.6,-,N/A,,Clear,330,2012-12-06 14:00:00
2:30 PM,64.4,42.8,45,30.15,-9999.0,WNW,5.8,-,N/A,,Clear,290,2012-12-06 14:30:00
3:00 PM,65,41,30,30.13,6,NW,5.8,,,,Clear,310,2012-12-06 15:00:00
3:00 PM,64.4,41.0,42,30.15,-9999.0,NW,5.8,-,N/A,,Clear,320,2012-12-06 15:00:00
3:30 PM,64.4,41.0,42,30.18,6.2,NW,5.8,-,N/A,,Mostly Cloudy,320,2012-12-06 15:30:00
4:00 PM,64.4,42.8,45,30.18,6.2,West,8.1,-,N/A,,Mostly Cloudy,280,2012-12-06 16:00:00
4:30 PM,64.4,42.8,45,30.18,6.2,WNW,5.8,-,N/A,,Mostly Cloudy,290,2012-12-06 16:30:00
5:00 PM,62.6,42.8,48,30.18,6.2,West,9.2,-,N/A,,Mostly Cloudy,280,2012-12-06 17:00:00
5:30 PM,59.0,42.8,55,30.18,6.2,West,6.9,-,N/A,,Mostly Cloudy,280,2012-12-06 17:30:00
5:48 PM,57,44,51,30.17,6,West,4.6,,,,Scattered Clouds,270,2012-12-06 17:48:00
6:00 PM,57.2,44.6,63,30.18,6.2,West,4.6,-,N/A,,Mostly Cloudy,270,2012-12-06 18:00:00
6:30 PM,55.4,44.6,67,30.18,6.2,West,5.8,-,N/A,,Mostly Cloudy,280,2012-12-06 18:30:00
7:00 PM,53.6,44.6,72,30.21,6.2,West,5.8,-,N/A,,Mostly Cloudy,260,2012-12-06 19:00:00
7:30 PM,53.6,46.4,77,30.21,6.2,WSW,4.6,-,N/A,,Mostly Cloudy,250,2012-12-06 19:30:00
8:00 PM,51.8,44.6,76,30.21,6.2,West,4.6,-,N/A,,Mostly Cloudy,260,2012-12-06 20:00:00
8:30 PM,51.8,46.4,82,30.21,6.2,SW,3.5,-,N/A,,Mostly Cloudy,230,2012-12-06 20:30:00
9:00 PM,51,46,76,30.25,6,SW,3.5,,,,Scattered Clouds,220,2012-12-06 21:00:00
9:00 PM,51.8,46.4,82,30.24,5.6,SSW,3.5,-,N/A,,Mostly Cloudy,210,2012-12-06 21:00:00
9:30 PM,50.0,46.4,87,30.21,6.2,SSW,3.5,-,N/A,,Mostly Cloudy,200,2012-12-06 21:30:00
10:00 PM,50.0,46.4,87,30.21,3.7,SW,2.3,-,N/A,,Mostly Cloudy,220,2012-12-06 22:00:00
10:30 PM,51.8,48.2,88,30.21,6.2,SSW,5.8,-,N/A,,Mostly Cloudy,200,2012-12-06 22:30:00
11:00 PM,50.0,46.4,87,30.21,6.2,Calm,Calm,-,N/A,,Mostly Cloudy,0,2012-12-06 23:00:00
11:30 PM,50.0,46.4,87,30.18,6.2,South,6.9,-,N/A,,Mostly Cloudy,170,2012-12-06 23:30:00